Location: Observatoire
(46.1952°N, 5.3391°E)
Time: 04:52:00
(UTC+01:00)

Explorer 7 - Pass Details

Date: 21 February 2026
Orbit: 430 x 542 km, 50.2° (Epoch: 7 March)

Event Time Altitude Azimuth Distance (km) Brightness Sun altitude
Rises 19:27:12 0° 293° (WNW) 2,507 11.5 -13.5°
Reaches altitude 10° 19:29:19 10° 291° (WNW) 1,647 10.4 -13.9°
Maximum altitude 19:33:02 70° 207° (SSW) 523 6.7 -14.5°
Enters shadow 19:35:25 22° 128° (SE) 1,137 8.0 -14.9°
Drops below altitude 10° 19:36:54 10° 124° (SE) 1,711 - -15.2°
Sets 19:39:08 0° 122° (ESE) 2,614 - -15.6°
